[[{"header":{"parameterUnit":"m.s-1","parameterCategory":1,"la1":30.2991,"la2":30.254,"lo1":-89.0895,"lo2":-89.0444,"dy":0.0017,"dx":0.0017,"nx":28,"ny":28,"refTime":"2025-07-05T09:00:00:Z","depth":0,"parameterNumber":2,"parameterNumberName":"U-component_of_WINDS"},"data":[0,0,0,0,0,0,0,0,0,0,0,0,0,0,0,0,0,0,0,0,0,0,0,0,0,0,0,0,0,0,0,0,0,0,0,0,0,0,0,0,0,0,0,0,0,0,0,0,0,0,0,0,0,0,0,0,0,0,0.0793,0.0792,0,0.0718,0.0717,0.0716,0.0709,0.071,0.0711,0.0712,0.0636,0.0633,0.0631,0,0,0,0,0,0,0,0,0,0,0,0,0,0.0931,0.0928,0.0793,0.0792,0.0791,0.0718,0.0717,0.0716,0.0709,0.071,0.0711,0.0712,0.0637,0.0634,0.063,0,0,0,0,0,0,0,0,0,0,0,0,0,0.0865,0.0928,0.0793,0.0779,0.0777,0.0718,0.0717,0.0716,0.0709,0.071,0.0711,0.0713,0.0638,0.0634,0.063,0.0581,0,0,0.0617,0.0615,0,0,0,0,0,0,0,0,0.0869,0.086,0.0782,0.078,0.0778,0.0724,0.0738,0.0671,0.0709,0.0735,0.0712,0.0713,0.0664,0.0658,0.0642,0.0577,0.0574,0.0617,0.0614,0.0613,0.0611,0,0,0,0,0,0,0,0.0873,0.0863,0.0764,0.0781,0.0778,0.0777,0.0768,0.0725,0.0694,0.0733,0.0732,0.0723,0.0663,0.0646,0.064,0.0573,0.0617,0.0613,0.0611,0.0609,0.0463,0.0462,0,0,0,0,0,0,0.0881,0.0867,0.0766,0.0761,0.0827,0.0773,0.0764,0.074,0.0694,0.0689,0.0722,0.0723,0.0652,0.0645,0.0637,0.0575,0.0613,0.0609,0.0606,0.0465,0.0463,0.0461,0,0,0,0,0,0,0.0884,0.0872,0.0769,0.0814,0.0801,0.0769,0.0743,0.0738,0.072,0.0687,0.0681,0.071,0.0653,0.0643,0.0594,0.0573,0.0607,0.0603,0.0466,0.0464,0.0462,0.0452,0,0,0,0,0,0,0.0888,0.0873,0.0854,0.0814,0.0798,0.0727,0.0741,0.0736,0.0713,0.0713,0.0673,0.0668,0.0653,0.0601,0.059,0.0568,0.06,0.0468,0.0465,0.0463,0.0454,0.045,0.0446,0,0,0,0,0,0.0892,0.0854,0.0853,0.0841,0.0774,0.0726,0.0717,0.0701,0.0711,0.0692,0.067,0.0669,0.0577,0.0596,0.0584,0.056,0.0469,0.0466,0.0463,0.0456,0.0451,0.0446,0,0,0,0,0,0,0.0893,0.0849,0.0847,0.0794,0.0764,0.0725,0.07,0.0696,0.0662,0.0664,0.0645,0.0636,0.0588,0.0569,0.0591,0.0509,0.0524,0.0519,0.0523,0.0518,0.0514,0.0519,0.0596,0,0,0,0,0,0.0887,0.0852,0.0815,0.0773,0.0757,0.0731,0.071,0.07,0.0668,0.0655,0.063,0.0599,0.0563,0.054,0.0505,0.0452,0.0443,0.043,0.0426,0.0423,0.0417,0.0387,0.038,0.0451,0.0451,0.0451,0,0,0.0874,0.0846,0.0825,0.0772,0.0747,0.0711,0.072,0.0682,0.0655,0.0649,0.0601,0.0582,0.0546,0.0495,0.0471,0.0478,0.0396,0.0418,0.0416,0.0413,0.0383,0.0376,0.037,0.0449,0.0449,0.045,0,0,0.0832,0.0808,0.0769,0.0744,0.0706,0.0689,0.0679,0.0641,0.0627,0.0579,0.0574,0.0541,0.048,0.0454,0.0434,0.0381,0.0379,0.0371,0.0349,0.032,0.0314,0.0309,0.0289,0.0283,0.0366,0.0366,0.0366,0,0.0821,0.0766,0.0749,0.071,0.0687,0.068,0.064,0.0617,0.057,0.0554,0.0562,0.0484,0.046,0.0402,0.0389,0.0373,0.0361,0.0375,0.0317,0.0311,0.0306,0.0287,0.028,0.0365,0.0365,0.0365,0.0366,0,0.0754,0.0715,0.0689,0.0642,0.0616,0.0577,0.0554,0.053,0.0522,0.0504,0.0455,0.0425,0.0384,0.037,0.0362,0.031,0.0315,0.032,0.0335,0.0299,0.0281,0.0273,0.0364,0.0364,0.0365,0.0365,0,0,0.0709,0.0654,0.0644,0.0622,0.058,0.055,0.0511,0.047,0.0449,0.0417,0.0383,0.0331,0.0335,0.0311,0.0301,0.0275,0.0234,0.0283,0.0282,0.0274,0.0174,0.0169,0.0161,0.0233,0.0231,0.023,0.0177,0,0.0661,0.059,0.0573,0.0512,0.0476,0.0469,0.0434,0.0405,0.0387,0.0354,0.0335,0.0297,0.0306,0.0292,0.0266,0.0244,0.0214,0.0248,0.02,0.0199,0.0208,0.0152,0.0147,0.0098,0.0169,0.0168,0.0167,0,0.0595,0.0561,0.0495,0.0457,0.0441,0.041,0.0371,0.034,0.0306,0.0295,0.0268,0.026,0.0218,0.0236,0.0178,0.0202,0.0182,0.0169,0.0166,0.016,0.018,0.0142,0.0082,0.0074,0.0156,0.0157,0.0158,0,0.0567,0.0505,0.0457,0.0439,0.0394,0.0372,0.0352,0.0319,0.0295,0.0261,0.0245,0.0207,0.0186,0.0157,0.0139,0.0153,0.0082,0.0099,0.0071,0.0071,0.0055,0.0056,-0.0011,0.0045,0.0045,0.0045,0.0045,0,0.0514,0.0474,0.0444,0.0414,0.0369,0.0351,0.0307,0.0287,0.0258,0.0225,0.0217,0.0186,0.0165,0.0131,0.0117,0.0071,0.0062,0.0052,0.0048,0.0051,0.0052,0.0036,0.0039,0.0043,0.0044,0.0044,0.0044,0,0.0475,0.0453,0.04,0.0361,0.035,0.0319,0.0285,0.0257,0.0239,0.0197,0.0186,0.0158,0.0117,0.0097,0.0047,0.0038,-0.0015,-0.0016,-0.0004,-0.0006,-0.0033,-0.0031,-0.0114,-0.0127,-0.0061,-0.0061,-0.0062,0,0.0442,0.0411,0.0368,0.0345,0.0324,0.0287,0.0262,0.0243,0.0218,0.0176,0.0153,0.0112,0.0078,0.0014,-0.0011,-0.0049,-0.0052,-0.0078,-0.0058,-0.0054,-0.0054,-0.0053,-0.0056,-0.0083,-0.0083,-0.0084,-0.0084,0,0.0385,0.0375,0.034,0.03,0.027,0.0238,0.0206,0.0188,0.0164,0.0136,0.0094,0.0068,0.0016,-0.0025,-0.0065,-0.0085,-0.0089,-0.009,-0.0099,-0.0097,-0.009,-0.0095,-0.0016,-0.0089,-0.0088,-0.0088,-0.0088,-0.0087,0.0347,0.0318,0.0283,0.0243,0.0217,0.0188,0.0158,0.0136,0.0101,0.0057,0.0048,0.0003,-0.003,-0.0084,-0.0106,-0.0141,-0.0135,-0.0147,-0.0151,-0.0154,-0.0156,-0.0083,-0.0148,-0.0148,-0.0148,-0.0148,-0.0147,0,0.0288,0.0265,0.0228,0.0184,0.0152,0.0151,0.0116,0.009,0.005,0.0019,-0.0014,-0.0063,-0.0102,-0.013,-0.017,-0.0193,-0.0196,-0.0203,-0.0202,-0.0207,-0.0158,-0.0147,-0.02,-0.02,-0.02,-0.02,-0.02,-0.02,0.0253,0.0205,0.0191,0.0129,0.0107,0.0062,0.0042,0.0014,-0.0011,-0.0065,-0.0098,-0.0116,-0.0146,-0.0188,-0.0225,-0.0232,-0.0247,-0.0255,-0.0262,-0.0216,-0.021,-0.0205,-0.0195,-0.0257,-0.0257,-0.0308,-0.0309,-0.0309]},{"header":{"parameterUnit":"m.s-1","parameterCategory":1,"la1":30.2991,"la2":30.254,"lo1":-89.0895,"lo2":-89.0444,"dy":0.0017,"dx":0.0017,"nx":28,"ny":28,"refTime":"2025-07-05T09:00:00:Z","depth":0,"parameterNumber":3,"parameterNumberName":"V-component_of_WINDS"},"data":[0,0,0,0,0,0,0,0,0,0,0,0,0,0,0,0,0,0,0,0,0,0,0,0,0,0,0,0,0,0,0,0,0,0,0,0,0,0,0,0,0,0,0,0,0,0,0,0,0,0,0,0,0,0,0,0,0,0,-2.7265,-2.7266,0,-2.742,-2.7422,-2.7424,-2.7433,-2.7431,-2.7429,-2.7427,-2.7583,-2.7589,-2.7595,0,0,0,0,0,0,0,0,0,0,0,0,0,-2.6972,-2.6977,-2.7264,-2.7266,-2.7268,-2.742,-2.7422,-2.7424,-2.7433,-2.7431,-2.7429,-2.7427,-2.7581,-2.7588,-2.7595,0,0,0,0,0,0,0,0,0,0,0,0,0,-2.711,-2.6979,-2.7264,-2.7291,-2.7295,-2.742,-2.7422,-2.7425,-2.7433,-2.7431,-2.7428,-2.7426,-2.7579,-2.7587,-2.7596,-2.7703,0,0,-2.7623,-2.7626,0,0,0,0,0,0,0,0,-2.7102,-2.7121,-2.7285,-2.7289,-2.7294,-2.7404,-2.7376,-2.7518,-2.7434,-2.7381,-2.7427,-2.7424,-2.7526,-2.7539,-2.7573,-2.771,-2.7717,-2.7623,-2.7629,-2.7632,-2.7635,0,0,0,0,0,0,0,-2.7093,-2.7114,-2.7326,-2.7287,-2.7293,-2.7295,-2.7311,-2.7403,-2.7466,-2.7385,-2.7386,-2.7405,-2.7527,-2.7565,-2.7577,-2.7719,-2.7623,-2.7631,-2.7636,-2.764,-2.7953,-2.7956,0,0,0,0,0,0,-2.7078,-2.7106,-2.7321,-2.7331,-2.719,-2.7302,-2.7321,-2.7372,-2.7465,-2.7477,-2.7407,-2.7405,-2.7552,-2.7567,-2.7583,-2.7715,-2.7632,-2.7641,-2.7646,-2.795,-2.7954,-2.7957,0,0,0,0,0,0,-2.7072,-2.7098,-2.7315,-2.7219,-2.7247,-2.731,-2.7367,-2.7376,-2.7414,-2.7482,-2.7493,-2.7434,-2.755,-2.757,-2.7674,-2.772,-2.7644,-2.7652,-2.7946,-2.7951,-2.7956,-2.798,0,0,0,0,0,0,-2.7064,-2.7095,-2.7137,-2.722,-2.7252,-2.7404,-2.737,-2.7381,-2.7429,-2.7428,-2.751,-2.7521,-2.7549,-2.7661,-2.7682,-2.7731,-2.7659,-2.7942,-2.7949,-2.7954,-2.7975,-2.7985,-2.7993,0,0,0,0,0,-2.7053,-2.7137,-2.7139,-2.7165,-2.7306,-2.7407,-2.7425,-2.7457,-2.7433,-2.7475,-2.7519,-2.7518,-2.7712,-2.7671,-2.7696,-2.7748,-2.794,-2.7947,-2.7954,-2.7971,-2.7983,-2.7993,0,0,0,0,0,0,-2.7056,-2.7148,-2.7152,-2.7265,-2.7328,-2.7408,-2.7462,-2.7468,-2.7539,-2.7534,-2.757,-2.7589,-2.7691,-2.773,-2.7683,-2.7857,-2.7823,-2.7835,-2.7828,-2.784,-2.7848,-2.7837,-2.7666,0,0,0,0,0,-2.707,-2.7146,-2.7221,-2.7313,-2.7345,-2.7398,-2.7444,-2.7463,-2.753,-2.7556,-2.7607,-2.7671,-2.7747,-2.7795,-2.7868,-2.7981,-2.7999,-2.8029,-2.8038,-2.8045,-2.8055,-2.8118,-2.8132,-2.798,-2.798,-2.798,0,0,-2.7099,-2.7159,-2.7204,-2.7316,-2.7367,-2.7444,-2.7421,-2.7502,-2.7559,-2.7568,-2.7669,-2.7709,-2.7783,-2.7891,-2.7942,-2.7927,-2.8101,-2.8054,-2.8059,-2.8065,-2.8127,-2.8141,-2.8154,-2.7985,-2.7984,-2.7983,0,0,-2.7192,-2.7244,-2.7328,-2.738,-2.7459,-2.7494,-2.7514,-2.7594,-2.7621,-2.7724,-2.7732,-2.78,-2.7929,-2.7981,-2.8024,-2.8139,-2.8141,-2.8161,-2.8208,-2.8269,-2.8281,-2.8292,-2.8333,-2.8347,-2.8171,-2.8171,-2.8171,0,-2.7217,-2.7334,-2.7369,-2.7452,-2.7501,-2.7514,-2.7598,-2.7647,-2.7745,-2.7778,-2.776,-2.7923,-2.7973,-2.8095,-2.8123,-2.8158,-2.8181,-2.8152,-2.8277,-2.8288,-2.8298,-2.8338,-2.8353,-2.8173,-2.8173,-2.8173,-2.8173,0,-2.7363,-2.7444,-2.7501,-2.7598,-2.7653,-2.7736,-2.7782,-2.7834,-2.785,-2.7886,-2.7991,-2.8052,-2.8138,-2.8168,-2.8183,-2.8292,-2.828,-2.8269,-2.8236,-2.8314,-2.8352,-2.8367,-2.8176,-2.8175,-2.8175,-2.8174,0,0,-2.746,-2.7576,-2.7596,-2.7641,-2.773,-2.7792,-2.7876,-2.7962,-2.8005,-2.8073,-2.8144,-2.8253,-2.8244,-2.8293,-2.8314,-2.8368,-2.8455,-2.835,-2.8352,-2.8368,-2.8579,-2.8587,-2.8604,-2.8457,-2.846,-2.8462,-2.8573,0,-2.7562,-2.7713,-2.7747,-2.7876,-2.7951,-2.7966,-2.8038,-2.81,-2.8137,-2.8206,-2.8246,-2.8323,-2.8305,-2.8335,-2.8389,-2.8433,-2.8498,-2.8425,-2.8522,-2.8526,-2.8504,-2.8624,-2.8632,-2.8734,-2.8588,-2.8591,-2.8592,0,-2.7701,-2.7774,-2.7911,-2.7991,-2.8024,-2.8089,-2.8171,-2.8237,-2.8307,-2.833,-2.8386,-2.8402,-2.8489,-2.8452,-2.8572,-2.8522,-2.8564,-2.8592,-2.8596,-2.8606,-2.8563,-2.8637,-2.8767,-2.8782,-2.8616,-2.8614,-2.8612,0,-2.7759,-2.7891,-2.799,-2.8028,-2.8123,-2.8169,-2.8211,-2.8279,-2.8329,-2.84,-2.8433,-2.8512,-2.8556,-2.8617,-2.8654,-2.8624,-2.8771,-2.8737,-2.8792,-2.8792,-2.8822,-2.882,-2.8961,-2.885,-2.8849,-2.8849,-2.8849,0,-2.7869,-2.7952,-2.8018,-2.8078,-2.8172,-2.8211,-2.8302,-2.8344,-2.8405,-2.8473,-2.849,-2.8554,-2.8599,-2.8669,-2.8699,-2.8794,-2.8813,-2.8834,-2.8841,-2.8832,-2.883,-2.886,-2.8854,-2.8853,-2.8852,-2.8851,-2.8851,0,-2.7949,-2.7996,-2.8105,-2.8188,-2.8211,-2.8276,-2.8346,-2.8406,-2.8444,-2.8531,-2.8553,-2.8612,-2.8696,-2.8739,-2.8843,-2.8862,-2.8969,-2.8972,-2.8946,-2.8949,-2.9002,-2.8996,-2.9167,-2.9191,-2.9064,-2.9065,-2.9066,0,-2.8016,-2.8081,-2.8171,-2.822,-2.8263,-2.834,-2.8391,-2.8432,-2.8485,-2.8571,-2.862,-2.8705,-2.8775,-2.8908,-2.8959,-2.9039,-2.9043,-2.9098,-2.9055,-2.9045,-2.9044,-2.904,-2.9047,-2.9105,-2.9106,-2.9107,-2.9108,0,-2.8131,-2.8152,-2.8226,-2.8309,-2.8371,-2.8437,-2.8503,-2.8541,-2.8593,-2.8651,-2.8738,-2.8792,-2.89,-2.8983,-2.9067,-2.9109,-2.9117,-2.9121,-2.9138,-2.913,-2.9113,-2.9123,-2.8967,-2.9117,-2.9116,-2.9115,-2.9115,-2.9114,-2.8207,-2.8265,-2.8339,-2.8421,-2.8475,-2.8537,-2.8598,-2.8644,-2.8717,-2.8809,-2.8828,-2.892,-2.8989,-2.9103,-2.9148,-2.922,-2.9208,-2.9233,-2.9239,-2.9244,-2.9247,-2.9102,-2.9235,-2.9235,-2.9235,-2.9234,-2.9234,0,-2.8322,-2.8371,-2.8446,-2.8539,-2.8604,-2.8608,-2.8682,-2.8735,-2.8816,-2.8881,-2.8951,-2.905,-2.9132,-2.9191,-2.9274,-2.9321,-2.9326,-2.9341,-2.9338,-2.9347,-2.9252,-2.9229,-2.9335,-2.9335,-2.9335,-2.9335,-2.9335,-2.9335,-2.839,-2.849,-2.8519,-2.8646,-2.8693,-2.8785,-2.8826,-2.8883,-2.8936,-2.9047,-2.9116,-2.9154,-2.9217,-2.9305,-2.938,-2.9395,-2.9425,-2.944,-2.9455,-2.9365,-2.9354,-2.9344,-2.9322,-2.9446,-2.9446,-2.9544,-2.9545,-2.9546]}]]